WetterOnline ( https://www.wetteronline.de )

Wetter aktuell Bad Salzuflen

Aktuelles Wetter: Bad Salzuflen (139m)

6-stündlich | Neueste Meldungen
Ortszeit Temperatur Wetter
Mo, 03.10. 8:00 8.2° C Nebel
Mo, 03.10. 2:00 9.2° C wolkenlos
So, 02.10. 20:00 12.5° C leicht bewölkt
So, 02.10. 14:00 17.1° C wolkig
So, 02.10. 8:00 11.4° C bedeckt
So, 02.10. 2:00 10.5° C leichter Regen
Sa, 01.10. 20:00 12.0° C Sprühregen
Sa, 01.10. 14:00 15.6° C wolkig
Ortszeit Temperatur Wetter
Mo, 03.10. 10:00 9.8° C bedeckt
Mo, 03.10. 9:50 9.8° C bedeckt
Mo, 03.10. 9:40 9.6° C bedeckt
Mo, 03.10. 9:30 9.2° C bedeckt
Mo, 03.10. 9:20 9.2° C bedeckt
Mo, 03.10. 9:10 9.1° C bedeckt
Mo, 03.10. 9:00 8.7° C bewölkt
Mo, 03.10. 8:30 8.2° C bedeckt
Mo, 03.10. 8:00 8.2° C Nebel
Mo, 03.10. 7:30 7.2° C Nebel
Mo, 03.10. 7:00 7.4° C Nebel
Ortszeit Relative Feuchte Sichtweite
Mo, 03.10. 8:00 99% 8 km
Mo, 03.10. 2:00 95% 22 km
So, 02.10. 20:00 78% 45 km
So, 02.10. 14:00 66% 45 km
So, 02.10. 8:00 94% 15 km
So, 02.10. 2:00 93% 35 km
Sa, 01.10. 20:00 89% 45 km
Sa, 01.10. 14:00 76% 50 km
Ortszeit Relative Feuchte Sichtweite
Mo, 03.10. 10:00 97% 16 km
Mo, 03.10. 9:50 97% -
Mo, 03.10. 9:40 97% -
Mo, 03.10. 9:30 97% 10 km
Mo, 03.10. 9:20 97% -
Mo, 03.10. 9:10 98% -
Mo, 03.10. 9:00 99% 7 km
Mo, 03.10. 8:30 99% 5.0 km
Mo, 03.10. 8:00 99% 8 km
Mo, 03.10. 7:30 99% 1.7 km
Mo, 03.10. 7:00 99% 0.5 km
Ortszeit Niederschlagsmenge Niederschlagsart
Mo, 03.10. 8:00 0.1 l/m2 in 12 Std. -
Mo, 03.10. 2:00 0.1 l/m2 in 6 Std. Regen
So, 02.10. 20:00 0.4 l/m2 in 12 Std. Regen
So, 02.10. 14:00 0.1 l/m2 in 6 Std. Regen
So, 02.10. 8:00 0.6 l/m2 in 12 Std. Regen
So, 02.10. 2:00 0.2 l/m2 in 6 Std. Regen
Sa, 01.10. 20:00 8 l/m2 in 12 Std. Regen
Sa, 01.10. 14:00 2 l/m2 in 6 Std. Regen
Ortszeit Niederschlagsmenge Niederschlagsart
Mo, 03.10. 10:00 0.0 l/m2 in 1 Std. -
Mo, 03.10. 9:50 keine Meldung -
Mo, 03.10. 9:40 keine Meldung -
Mo, 03.10. 9:30 0.0 l/m2 in 1 Std. -
Mo, 03.10. 9:20 keine Meldung -
Mo, 03.10. 9:10 keine Meldung -
Mo, 03.10. 9:00 0.0 l/m2 in 1 Std. -
Mo, 03.10. 8:30 0.0 l/m2 in 1 Std. -
Mo, 03.10. 8:00 0.0 l/m2 in 1 Std. -
Mo, 03.10. 7:30 0.0 l/m2 in 1 Std. -
Mo, 03.10. 7:00 0.0 l/m2 in 1 Std. -
Ortszeit Stärke Spitze Richtung
km/h Bft. km/h Grad Sektor
Mo, 03.10. 8:00 6 1 15 220° SW
Mo, 03.10. 2:00 7 2 22 260° W
So, 02.10. 20:00 6 1 33 290° W
So, 02.10. 14:00 9 2 31 260° W
So, 02.10. 8:00 7 2 14 200° S
So, 02.10. 2:00 7 2 18 200° S
Sa, 01.10. 20:00 7 2 43 270° W
Sa, 01.10. 14:00 15 3 33 220° SW
Ortszeit Stärke Spitze Richtung
km/h Bft. km/h Grad Sektor
Mo, 03.10. 10:00 7 2 11 200° S
Mo, 03.10. 9:50 7 2 - 200° S
Mo, 03.10. 9:40 6 1 - 200° S
Mo, 03.10. 9:30 6 1 7 190° S
Mo, 03.10. 9:20 6 1 - 190° S
Mo, 03.10. 9:10 4 1 - 200° S
Mo, 03.10. 9:00 4 1 11 190° S
Mo, 03.10. 8:30 4 1 11 180° S
Mo, 03.10. 8:00 6 1 9 220° SW
Mo, 03.10. 7:30 4 1 7 200° S
Mo, 03.10. 7:00 6 1 7 190° S
Ortszeit Untergrenze Bedeckung Gattung
total tief tief mittel hoch
Mo, 03.10. 8:00 30 m 7/8 7/8 - - -
Mo, 03.10. 2:00 - 0/8 0/8 - - -
So, 02.10. 20:00 1080 m 3/8 3/8 - - -
So, 02.10. 14:00 810 m 6/8 3/8 - - -
So, 02.10. 8:00 240 m 8/8 8/8 - - -
So, 02.10. 2:00 960 m 5/8 5/8 - - -
Sa, 01.10. 20:00 840 m 6/8 6/8 - - -
Sa, 01.10. 14:00 480 m 6/8 6/8 - - -
Ortszeit Bedeckungsgrad in Achtel und Wolkenuntergrenze
Mo, 03.10. 10:00 5(90m) 8(1290m)
Mo, 03.10. 9:50 5(90m) 8(1290m)
Mo, 03.10. 9:40 8
Mo, 03.10. 9:30 4(60m) 8(1260m)
Mo, 03.10. 9:20 4(60m) 8(1260m)
Mo, 03.10. 9:10 8
Mo, 03.10. 9:00 4(60m) 7(1260m)
Mo, 03.10. 8:30 7(30m) 8(1230m)
Mo, 03.10. 8:00 1(30m) 7(1260m)
Mo, 03.10. 7:30 2(30m) 4(1440m)
Mo, 03.10. 7:00 2(<30m) 3(1410m)
Ortszeit Luftdruck NN (hPa) Tendenz (hPa in 3 Std.)
Mo, 03.10. 8:00 1026 + 0,9
Mo, 03.10. 2:00 1024 + 1,5
So, 02.10. 20:00 1020 + 2,4
So, 02.10. 14:00 1016 + 0,5
So, 02.10. 8:00 1015 + 0,5
So, 02.10. 2:00 1014 + 1,6
Sa, 01.10. 20:00 1009 + 2,8
Sa, 01.10. 14:00 1004 + 1,2
Ortszeit Luftdruck NN (hPa) Tendenz (hPa in 3 Std.)
Mo, 03.10. 10:00 1027 + 1,4
Mo, 03.10. 9:50 1027 keine Meldung
Mo, 03.10. 9:40 1027 keine Meldung
Mo, 03.10. 9:30 1026 + 1,0
Mo, 03.10. 9:20 1026 keine Meldung
Mo, 03.10. 9:10 1026 keine Meldung
Mo, 03.10. 9:00 1026 + 1,0
Mo, 03.10. 8:30 1026 + 1,1
Mo, 03.10. 8:00 1026 + 0,9
Mo, 03.10. 7:30 1026 + 0,8
Mo, 03.10. 7:00 1025 + 0,8
Ortszeit Schneehöhe (cm)
Mo, 03.10. 8:00 0
Mo, 03.10. 2:00 0
So, 02.10. 20:00 0
So, 02.10. 14:00 0
So, 02.10. 8:00 0
So, 02.10. 2:00 0
Sa, 01.10. 20:00 0
Sa, 01.10. 14:00 0
Ortszeit Schneehöhe (cm)
Mo, 03.10. 10:00 0
Mo, 03.10. 9:50 0
Mo, 03.10. 9:40 0
Mo, 03.10. 9:30 0
Mo, 03.10. 9:20 0
Mo, 03.10. 9:10 0
Mo, 03.10. 9:00 0
Mo, 03.10. 8:30 0
Mo, 03.10. 8:00 0
Mo, 03.10. 7:30 0
Mo, 03.10. 7:00 0
Link zu dieser Seite / Seite empfehlen

Das Wetter in ...